[[{"header":{"parameterUnit":"m.s-1","parameterCategory":1,"la1":30.2992,"la2":30.254,"lo1":-89.0895,"lo2":-89.0443,"dy":0.0025,"dx":0.0025,"nx":19,"ny":19,"refTime":"2026-05-14T09:00:00:Z","depth":0,"parameterNumber":2,"parameterNumberName":"U-component_of_WINDS"},"data":[0,0,0,0.2077,0.2079,0.2198,0.2198,0.2332,0.2333,0,0,0,0,0,0,0,0,0,0,0,0.2027,0.2028,0.2077,0.2079,0.2198,0.2199,0.2332,0.2333,0,0,0,0,0,0,0,0,0,0,0,0.2027,0.2028,0.2028,0.208,0.2198,0.2199,0.2332,0.2249,0,0,0,0,0,0,0,0,0,0,0.2138,0.2077,0.2028,0.2028,0.208,0.2198,0.2199,0.2246,0.2255,0.227,0,0.2276,0,0.2306,0.2341,0.2341,0,0,0,0.2091,0.2069,0.2114,0.2028,0.2081,0.2197,0.2148,0.2251,0.2261,0.2281,0.2278,0.2284,0.2309,0.2341,0.2342,0.2385,0.2384,0,0,0.2084,0.2042,0.2107,0.212,0.2097,0.2144,0.2151,0.2257,0.2252,0.2279,0.2287,0.2311,0.2342,0.2343,0.2385,0.2385,0,0,0,0.2058,0.2036,0.2079,0.2114,0.2136,0.2147,0.2155,0.2248,0.2265,0.2289,0.2312,0.2343,0.2344,0.2386,0.2385,0.2326,0,0,0,0.2054,0.2021,0.2076,0.2051,0.2134,0.2193,0.2143,0.2258,0.2271,0.2312,0.2343,0.2345,0.2386,0.2385,0.2328,0.2305,0,0,0,0.2025,0.2018,0.203,0.2048,0.2097,0.2192,0.2216,0.2262,0.2285,0.2341,0.2345,0.2386,0.2385,0.233,0.2309,0.2304,0,0,0,0.1981,0.1975,0.2028,0.2032,0.2096,0.2154,0.2216,0.2262,0.2303,0.2343,0.2386,0.2385,0.2331,0.2311,0.2306,0.2292,0.2281,0,0,0.195,0.197,0.1976,0.2026,0.2063,0.2139,0.217,0.2249,0.2295,0.2353,0.2355,0.2327,0.2309,0.2304,0.2241,0.2232,0,0,0,0.1952,0.1955,0.1974,0.201,0.207,0.212,0.2199,0.223,0.2281,0.2315,0.2326,0.2317,0.2316,0.2311,0.2304,0.2307,0.2381,0.2381,0.2381,0.1845,0.1904,0.1918,0.1991,0.2026,0.2109,0.2144,0.2199,0.2248,0.225,0.2267,0.2221,0.2214,0.2209,0.2211,0.2265,0.2265,0.2265,0.2264,0.1805,0.1819,0.1886,0.1923,0.1986,0.202,0.2101,0.2136,0.2178,0.2212,0.2215,0.2247,0.2198,0.2203,0.2261,0.2261,0.2262,0.2262,0.2262,0.1741,0.1758,0.1794,0.1855,0.1896,0.1973,0.201,0.2067,0.2122,0.2124,0.215,0.2151,0.2159,0.2132,0.2132,0.2132,0.2132,0.2132,0.2132,0.1659,0.1703,0.1725,0.179,0.1823,0.1873,0.1959,0.1994,0.2048,0.2087,0.2087,0.2137,0.2182,0.2191,0.213,0.213,0.213,0.213,0.2131,0.1595,0.1619,0.1654,0.1687,0.177,0.1808,0.1882,0.1949,0.1986,0.2004,0.2055,0.2078,0.2103,0.211,0.2118,0.2041,0.2041,0.2041,0.2041,0.154,0.1559,0.1609,0.1658,0.1713,0.1784,0.1826,0.1895,0.1971,0.1999,0.2019,0.2036,0.2039,0.2062,0.207,0.2078,0.1993,0.1993,0.1993,0.1505,0.1532,0.1554,0.1626,0.1697,0.1757,0.18,0.1856,0.1947,0.1992,0.2022,0.2024,0.2052,0.2058,0.21,0.211,0.2127,0,0]},{"header":{"parameterUnit":"m.s-1","parameterCategory":1,"la1":30.2992,"la2":30.254,"lo1":-89.0895,"lo2":-89.0443,"dy":0.0025,"dx":0.0025,"nx":19,"ny":19,"refTime":"2026-05-14T09:00:00:Z","depth":0,"parameterNumber":3,"parameterNumberName":"V-component_of_WINDS"},"data":[0,0,0,-1.6741,-1.6739,-1.6643,-1.6643,-1.6497,-1.6496,0,0,0,0,0,0,0,0,0,0,0,-1.6755,-1.6754,-1.6741,-1.6738,-1.6643,-1.6643,-1.6497,-1.6496,0,0,0,0,0,0,0,0,0,0,0,-1.6756,-1.6754,-1.6752,-1.6738,-1.6643,-1.6643,-1.6498,-1.6578,0,0,0,0,0,0,0,0,0,0,-1.6675,-1.6674,-1.6755,-1.6752,-1.6737,-1.6643,-1.6643,-1.6582,-1.6573,-1.653,0,-1.6489,0,-1.649,-1.6484,-1.6484,0,0,0,-1.6748,-1.6682,-1.6669,-1.6752,-1.6736,-1.6643,-1.6689,-1.6577,-1.6567,-1.6518,-1.6488,-1.6483,-1.6488,-1.6483,-1.6482,-1.6205,-1.6203,0,0,-1.6754,-1.673,-1.6676,-1.6662,-1.6675,-1.6692,-1.6686,-1.6571,-1.6536,-1.6487,-1.648,-1.6485,-1.6482,-1.6481,-1.6207,-1.6205,0,0,0,-1.6762,-1.6733,-1.6724,-1.6667,-1.6652,-1.6689,-1.6682,-1.6541,-1.654,-1.6478,-1.6484,-1.6481,-1.6479,-1.6209,-1.6206,-1.6094,0,0,0,-1.6766,-1.6738,-1.6726,-1.671,-1.6653,-1.6595,-1.6654,-1.6548,-1.6536,-1.6484,-1.6481,-1.6478,-1.6211,-1.6207,-1.6102,-1.6044,0,0,0,-1.6766,-1.6739,-1.672,-1.6709,-1.6668,-1.6598,-1.659,-1.6546,-1.6538,-1.6484,-1.6477,-1.6212,-1.6208,-1.6108,-1.6055,-1.5962,0,0,0,-1.676,-1.6622,-1.6718,-1.6567,-1.6668,-1.6531,-1.6591,-1.649,-1.643,-1.648,-1.621,-1.6206,-1.611,-1.6061,-1.5969,-1.5878,-1.5839,0,0,-1.6573,-1.6599,-1.6512,-1.6595,-1.6434,-1.6547,-1.637,-1.6337,-1.6353,-1.6253,-1.6247,-1.6099,-1.6055,-1.5964,-1.5633,-1.5601,0,0,0,-1.6445,-1.6381,-1.6344,-1.6286,-1.6259,-1.623,-1.6227,-1.6215,-1.6132,-1.6297,-1.6044,-1.6018,-1.5965,-1.5922,-1.5896,-1.5851,-1.6187,-1.6187,-1.6187,-1.6143,-1.6173,-1.6031,-1.6049,-1.5993,-1.5992,-1.5949,-1.5932,-1.5978,-1.5918,-1.5887,-1.5683,-1.5632,-1.5612,-1.5565,-1.5845,-1.5844,-1.5844,-1.5843,-1.587,-1.5783,-1.5851,-1.5736,-1.5768,-1.5672,-1.5668,-1.5704,-1.5618,-1.5708,-1.5663,-1.5755,-1.5577,-1.5537,-1.5835,-1.5837,-1.5838,-1.5839,-1.5839,-1.5672,-1.5636,-1.5626,-1.5546,-1.5482,-1.5506,-1.5422,-1.5455,-1.5486,-1.5442,-1.5411,-1.5413,-1.5416,-1.5426,-1.5425,-1.5424,-1.5424,-1.5423,-1.5423,-1.5469,-1.5461,-1.5386,-1.5347,-1.5315,-1.5277,-1.5278,-1.5247,-1.5221,-1.5252,-1.5252,-1.5302,-1.5555,-1.5616,-1.5412,-1.5414,-1.5415,-1.5416,-1.5417,-1.5173,-1.5246,-1.5129,-1.5097,-1.5055,-1.4988,-1.5035,-1.4969,-1.4949,-1.4906,-1.4968,-1.5151,-1.5179,-1.52,-1.525,-1.4964,-1.4964,-1.4964,-1.4964,-1.5002,-1.5022,-1.4911,-1.4857,-1.4809,-1.484,-1.4706,-1.4707,-1.4718,-1.4707,-1.4755,-1.4826,-1.4847,-1.4862,-1.4891,-1.4938,-1.4578,-1.4578,-1.4577,-1.4821,-1.4838,-1.4716,-1.4731,-1.4701,-1.4675,-1.455,-1.4485,-1.4514,-1.4562,-1.4699,-1.4715,-1.483,-1.4867,-1.4912,-1.4956,-1.5044,0,0]}]]